Location: Foulognes
(49.1413°N, 0.8183°W)
Time: 17:14:18
(UTC+00:00)

STARLINK-81 - Pass Details

Date: 21 October 2019
Orbit: 548 x 551 km, 53.0° (Epoch: 17 November)

Event Time Altitude Azimuth Distance (km) Brightness Sun altitude
Rises 17:39:02 0° 268° (W) 2,715 9.6 -6.7°
Reaches altitude 10° 17:41:19 10° 273° (W) 1,823 7.9 -7.1°
Maximum altitude 17:45:22 52° 351° (N) 685 4.1 -7.7°
Enters shadow 17:49:25 10° 69° (ENE) 1,819 5.6 -8.4°
